This demonstration page uses our WeatherBlox Daily Observations layout. Learn more.

Left ArrowRight Arrow

39.51506, -84.39828

Hourly Observations for June 23, 2016

Temp ( °F °C ) Dew Point ( °F °C ) Humidity (%) Winds ( mph kmh ) Pressure ( in mb ) Visibility ( mi km ) Precip ( " mm )
12:15 am 00:15 Mostly Cloudy 74 23.6 67 19.5 78 78 SSE 3 6 29.88 1012 10 16 N/A
12:35 am 00:35 Partly Cloudy 74 23.6 67 19.5 78 78 SSE 5 7 29.85 1011 10 16 N/A
12:55 am 00:55 Clear 74 23.6 67 19.5 78 78 SSE 5 7 29.85 1011 10 16 N/A
1:15 am 01:15 Clear 74 23.6 67 19.6 78 78 S 5 7 29.85 1011 10 16 N/A
1:35 am 01:35 Clear 74 23.6 68 20 80 80 SSW 5 7 29.85 1011 10 16 N/A
1:55 am 01:55 Clear 76 24.4 69 20.4 78 78 S 6 9 29.83 1010 10 16 N/A
2:15 am 02:15 Clear 76 24.6 69 20.8 79 79 S 6 9 29.83 1010 10 16 N/A
2:35 am 02:35 Clear 77 25.1 70 21.2 79 79 SSW 7 11 29.83 1010 10 16 N/A
2:55 am 02:55 Partly Cloudy with Light Rain 77 25.1 70 21 78 78 W 14 22 29.91 1013 10 16 N/A
3:15 am 03:15 Cloudy with Heavy Rain 69 20.8 62 16.8 78 78 NW 5 7 29.85 1011 3 5 N/A
3:35 am 03:35 Mostly Cloudy with Light Rain 69 20.8 63 17.3 80 80 SW 7 11 29.85 1011 7 11 N/A
3:55 am 03:55 Mostly Cloudy with Light Rain 69 20.8 64 17.7 83 83 S 6 9 29.85 1011 10 16 N/A
4:15 am 04:15 Partly Cloudy 69 20.8 64 17.7 83 83 S 5 7 29.85 1011 10 16 N/A
4:35 am 04:35 Mostly Cloudy with Light Rain 69 20.8 64 17.8 83 83 S 7 11 29.85 1011 10 16 N/A
4:55 am 04:55 Cloudy with Rain 69 20.8 64 17.8 83 83 S 13 20 29.83 1010 7 11 N/A
5:15 am 05:15 Cloudy with Light Rain 69 20.8 64 17.8 83 83 SW 5 7 29.85 1011 10 16 N/A
5:35 am 05:35 Mostly Cloudy with Light Rain 69 20.8 64 17.8 83 83 SW 7 11 29.83 1010 10 16 N/A
5:55 am 05:55 Mostly Cloudy with Light Rain 69 20.8 64 17.8 83 83 SSW 10 17 29.83 1010 10 16 N/A
6:15 am 06:15 Partly Cloudy 69 20.8 64 17.7 83 83 N N/A 29.83 1010 10 16 N/A
6:35 am 06:35 Mostly Cloudy 69 20.8 64 17.8 83 83 ESE 3 6 29.85 1011 10 16 N/A
6:55 am 06:55 Cloudy with Rain 69 20.8 64 17.8 83 83 SSE 5 7 29.85 1011 4 6 N/A
7:15 am 07:15 Cloudy 69 20.8 64 17.8 83 83 SSE 7 11 29.85 1011 10 16 N/A
7:35 am 07:35 Cloudy 69 20.8 64 17.7 83 83 N N/A 29.85 1011 10 16 N/A
7:55 am 07:55 Cloudy 69 20.8 64 17.8 83 83 S 3 6 29.85 1011 10 16 N/A
8:15 am 08:15 Cloudy 69 20.8 64 17.8 83 83 S 6 9 29.85 1011 10 16 N/A
8:35 am 08:35 Cloudy 69 20.8 64 17.7 83 83 SSW 6 9 29.85 1011 10 16 N/A
8:55 am 08:55 Cloudy 71 21.7 65 18.6 83 83 SSW 5 7 29.85 1011 10 16 N/A
9:15 am 09:15 Cloudy 74 23.1 68 19.8 82 82 S 5 7 29.85 1011 10 16 N/A
9:35 am 09:35 Cloudy 74 23.6 68 20.1 81 81 SSW 6 9 29.85 1011 10 16 N/A
9:55 am 09:55 Cloudy 74 23.6 68 20 80 80 SW 6 9 29.85 1011 10 16 N/A
10:15 am 10:15 Mostly Cloudy 74 23.6 68 20.1 81 81 SSW 8 13 29.83 1010 10 16 N/A
10:35 am 10:35 Cloudy 78 25.6 71 21.5 78 78 SSW 8 13 29.83 1010 10 16 N/A
10:55 am 10:55 Cloudy 81 27.2 71 21.8 72 72 SW 8 13 29.80 1009 10 16 N/A
11:15 am 11:15 Cloudy 82 28 72 22.1 70 70 SW 10 17 29.80 1009 10 16 N/A
11:35 am 11:35 Cloudy 82 28 72 22.3 71 71 SSW 7 11 29.80 1009 10 16 N/A
11:55 am 11:55 Cloudy 84 28.9 73 22.6 69 69 SW 7 11 29.80 1009 10 16 N/A
12:15 pm 12:15 Cloudy 87 30.7 74 23.1 64 64 WSW 16 26 29.80 1009 10 16 N/A
12:35 pm 12:35 Cloudy 86 30 73 22.5 64 64 WSW 9 15 29.83 1010 10 16 N/A
12:55 pm 12:55 Cloudy 87 30.7 73 23 64 64 WSW 10 17 29.80 1009 10 16 N/A
1:15 pm 13:15 Mostly Cloudy 90 32.1 75 23.7 61 61 WSW 13 20 29.80 1009 10 16 N/A
1:35 pm 13:35 Mostly Cloudy 90 32.1 74 23.4 60 60 SW 14 22 29.80 1009 10 16 N/A
1:55 pm 13:55 Mostly Cloudy 90 32.1 74 23.3 60 60 WSW 13 20 29.80 1009 10 16 N/A
2:15 pm 14:15 Mostly Cloudy 90 32.1 74 23.4 60 60 W 12 19 29.80 1009 10 16 N/A
2:35 pm 14:35 Mostly Cloudy 90 32.1 74 23.3 60 60 WSW 13 20 29.80 1009 10 16 N/A
2:55 pm 14:55 Partly Cloudy 90 32.1 73 23 59 59 WSW 14 22 29.80 1009 10 16 N/A
3:15 pm 15:15 Partly Cloudy 90 32.1 72 22 55 55 WSW 16 26 29.80 1009 10 16 N/A
3:35 pm 15:35 Partly Cloudy 90 32.2 71 21.9 55 55 WSW 14 22 29.80 1009 10 16 N/A
3:55 pm 15:55 Partly Cloudy 92 33.4 72 22.2 52 52 WSW 13 20 29.77 1008 10 16 N/A
4:15 pm 16:15 Partly Cloudy 90 32.1 70 21.1 52 52 W 14 22 29.77 1008 10 16 N/A
4:35 pm 16:35 Cloudy with Light Rain 82 28 71 21.6 68 68 W 6 9 29.77 1008 3 4 N/A
4:55 pm 16:55 Cloudy 83 28.2 74 23.5 76 76 W 6 9 29.80 1009 10 16 N/A
5:15 pm 17:15 Mostly Cloudy 90 32 76 24.7 65 65 WNW 8 13 29.80 1009 10 16 N/A
5:35 pm 17:35 Mostly Cloudy 88 31.2 72 22.1 58 58 NW 6 9 29.80 1009 10 16 N/A
5:55 pm 17:55 Partly Cloudy 90 32.1 69 20.4 50 50 NW 7 11 29.80 1009 10 16 N/A
6:10 pm 18:10 Partly Cloudy 90 32.1 65 18.3 44 44 NW 10 17 29.80 1009 10 16 N/A
6:35 pm 18:35 Sunny 90 32.1 66 19 46 46 NW 7 11 29.80 1009 10 16 N/A
6:55 pm 18:55 Sunny 90 32.1 67 19.3 47 47 NNW 12 19 29.80 1009 10 16 N/A
7:15 pm 19:15 Sunny 90 32.1 69 20.3 50 50 N 7 11 29.80 1009 10 16 N/A
7:35 pm 19:35 Sunny 87 30.7 66 18.9 49 49 N 6 9 29.83 1010 10 16 N/A
7:55 pm 19:55 Sunny 85 29.2 66 18.7 53 53 NNE 10 17 29.83 1010 10 16 N/A
8:15 pm 20:15 Sunny 83 28.3 65 18.2 54 54 NNE 7 11 29.83 1010 10 16 N/A
8:35 pm 20:35 Sunny 82 28 67 19.3 59 59 N 6 9 29.83 1010 10 16 N/A
8:55 pm 20:55 Partly Cloudy 81 27 67 19.7 64 64 N 3 6 29.83 1010 10 16 N/A
9:15 pm 21:15 Partly Cloudy 80 26.5 67 19.6 66 66 N 5 7 29.88 1012 10 16 N/A
9:35 pm 21:35 Clear 80 26.5 67 19.6 66 66 NNE 8 13 29.88 1012 10 16 N/A
9:55 pm 21:55 Partly Cloudy 80 26.5 68 19.8 67 67 N 6 9 29.88 1012 10 16 N/A
10:15 pm 22:15 Partly Cloudy 77 25.1 67 19.6 72 72 NNE 3 6 29.88 1012 10 16 N/A
10:35 pm 22:35 Partly Cloudy 77 25.1 67 19.7 72 72 N 3 6 29.88 1012 10 16 N/A
10:55 pm 22:55 Clear 74 23.6 66 18.8 75 75 N 5 7 29.91 1013 10 16 N/A
11:15 pm 23:15 Clear 74 23.6 66 19.1 76 76 N N/A 29.91 1013 10 16 N/A
11:35 pm 23:35 Clear 74 23.6 67 19.3 77 77 N N/A 29.91 1013 10 16 N/A
11:55 pm 23:55 Clear 74 23.6 68 20 80 80 N N/A 29.91 1013 10 16 N/A

Powered by AerisWeather